Time,TemperatureF,DewpointF,PressureIn,WindDirection,WindDirectionDegrees,WindSpeedMPH,WindSpeedGustMPH,Humidity,HourlyPrecipIn,Conditions,Clouds,dailyrainin,SoftwareType,DateUTC
2013-04-04 00:03:00,31.0,-99.9,-100.00,SW,225,6.0,16.0,-999,0.00,,,0.00,,2013-04-04 05:03:00,
2013-04-04 00:23:00,31.0,-99.9,-100.00,SW,225,8.0,16.0,-999,0.00,,,0.00,,2013-04-04 05:23:00,
2013-04-04 00:32:00,32.0,-99.9,-100.00,SW,225,12.0,17.0,-999,0.00,,,0.00,,2013-04-04 05:32:00,
2013-04-04 00:42:00,32.0,-99.9,-100.00,SW,225,12.0,17.0,-999,0.00,,,0.00,,2013-04-04 05:42:00,
2013-04-04 00:53:00,32.0,-99.9,-100.00,SW,225,14.0,20.0,-999,0.00,,,0.00,,2013-04-04 05:53:00,
2013-04-04 01:03:00,32.0,-99.9,-100.00,SW,225,10.0,20.0,-999,0.00,,,0.00,,2013-04-04 06:03:00,
2013-04-04 01:13:00,32.0,-99.9,-100.00,SW,225,10.0,20.0,-999,0.00,,,0.00,,2013-04-04 06:13:00,
2013-04-04 01:22:00,32.0,-99.9,-100.00,SW,225,6.0,18.0,-999,0.00,,,0.00,,2013-04-04 06:22:00,
2013-04-04 01:33:00,32.0,-99.9,-100.00,SW,225,10.0,16.0,-999,0.00,,,0.00,,2013-04-04 06:33:00,
2013-04-04 01:43:00,32.0,-99.9,-100.00,SW,225,10.0,16.0,-999,0.00,,,0.00,,2013-04-04 06:43:00,
2013-04-04 01:53:00,32.0,-99.9,-100.00,SW,225,9.0,15.0,-999,0.00,,,0.00,,2013-04-04 06:53:00,
2013-04-04 02:03:00,32.0,-99.9,-100.00,SW,225,7.0,15.0,-999,0.00,,,0.00,,2013-04-04 07:03:00,
2013-04-04 02:13:00,32.0,-99.9,-100.00,SW,225,7.0,15.0,-999,0.00,,,0.00,,2013-04-04 07:13:00,
2013-04-04 02:22:00,32.0,-99.9,-100.00,WSW,248,6.0,20.0,-999,0.00,,,0.00,,2013-04-04 07:22:00,
2013-04-04 02:32:00,32.0,-99.9,-100.00,SW,225,7.0,14.0,-999,0.00,,,0.00,,2013-04-04 07:32:00,
2013-04-04 02:43:00,32.0,-99.9,-100.00,SW,225,7.0,14.0,-999,0.00,,,0.00,,2013-04-04 07:43:00,
2013-04-04 02:53:00,32.0,-99.9,-100.00,SW,225,7.0,15.0,-999,0.00,,,0.00,,2013-04-04 07:53:00,
2013-04-04 03:03:00,32.0,-99.9,-100.00,WSW,248,2.0,14.0,-999,0.00,,,0.00,,2013-04-04 08:03:00,
2013-04-04 03:12:00,32.0,-99.9,-100.00,WSW,248,2.0,14.0,-999,0.00,,,0.00,,2013-04-04 08:12:00,
2013-04-04 03:23:00,31.0,-99.9,-100.00,WSW,248,5.0,9.0,-999,0.00,,,0.00,,2013-04-04 08:23:00,
2013-04-04 03:33:00,32.0,-99.9,-100.00,SW,225,5.0,12.0,-999,0.00,,,0.00,,2013-04-04 08:33:00,
2013-04-04 03:44:00,32.0,-99.9,-100.00,SW,225,5.0,12.0,-999,0.00,,,0.00,,2013-04-04 08:44:00,
2013-04-04 03:53:00,32.0,-99.9,-100.00,WSW,248,5.0,13.0,-999,0.00,,,0.00,,2013-04-04 08:53:00,
2013-04-04 04:03:00,32.0,-99.9,-100.00,WSW,248,6.0,12.0,-999,0.00,,,0.00,,2013-04-04 09:03:00,
2013-04-04 04:13:00,32.0,-99.9,-100.00,WSW,248,6.0,12.0,-999,0.00,,,0.00,,2013-04-04 09:13:00,
2013-04-04 04:23:00,32.0,-99.9,-100.00,SW,225,9.0,15.0,-999,0.00,,,0.00,,2013-04-04 09:23:00,
2013-04-04 04:34:00,33.0,-99.9,-100.00,SW,225,7.0,15.0,-999,0.00,,,0.00,,2013-04-04 09:34:00,
2013-04-04 04:44:00,33.0,-99.9,-100.00,SW,225,7.0,15.0,-999,0.00,,,0.00,,2013-04-04 09:44:00,
2013-04-04 04:54:00,33.0,-99.9,-100.00,SW,225,8.0,12.0,-999,0.00,,,0.00,,2013-04-04 09:54:00,
2013-04-04 05:05:00,33.0,-99.9,-100.00,SW,225,8.0,13.0,-999,0.00,,,0.00,,2013-04-04 10:05:00,
2013-04-04 05:13:00,33.0,-99.9,-100.00,SW,225,8.0,13.0,-999,0.00,,,0.00,,2013-04-04 10:13:00,
2013-04-04 05:25:00,33.0,-99.9,-100.00,WSW,248,6.0,13.0,-999,0.00,,,0.00,,2013-04-04 10:25:00,
2013-04-04 05:34:00,33.0,-99.9,-100.00,SW,225,5.0,12.0,-999,0.00,,,0.00,,2013-04-04 10:34:00,
2013-04-04 05:43:00,33.0,-99.9,-100.00,SW,225,5.0,12.0,-999,0.00,,,0.00,,2013-04-04 10:43:00,
2013-04-04 05:54:00,33.0,-99.9,-100.00,SW,225,7.0,10.0,-999,0.00,,,0.00,,2013-04-04 10:54:00,
2013-04-04 06:03:00,33.0,-99.9,-100.00,SW,225,6.0,10.0,-999,0.00,,,0.00,,2013-04-04 11:03:00,
2013-04-04 06:13:00,33.0,-99.9,-100.00,SW,225,6.0,10.0,-999,0.00,,,0.00,,2013-04-04 11:13:00,
2013-04-04 06:23:00,33.0,-99.9,-100.00,WSW,248,6.0,12.0,-999,0.00,,,0.00,,2013-04-04 11:23:00,
2013-04-04 06:34:00,33.0,-99.9,-100.00,SW,225,3.0,8.0,-999,0.00,,,0.00,,2013-04-04 11:34:00,
2013-04-04 06:43:00,33.0,-99.9,-100.00,SW,225,3.0,8.0,-999,0.00,,,0.00,,2013-04-04 11:43:00,
2013-04-04 06:55:00,32.0,-99.9,-100.00,WSW,248,5.0,8.0,-999,0.00,,,0.00,,2013-04-04 11:55:00,
2013-04-04 07:03:00,32.0,-99.9,-100.00,SW,225,5.0,7.0,-999,0.00,,,0.00,,2013-04-04 12:03:00,
2013-04-04 07:13:00,32.0,-99.9,-100.00,SW,225,5.0,7.0,-999,0.00,,,0.00,,2013-04-04 12:13:00,
2013-04-04 07:23:00,32.0,-99.9,-100.00,WSW,248,3.0,7.0,-999,0.00,,,0.00,,2013-04-04 12:23:00,
2013-04-04 07:33:00,34.0,-99.9,-100.00,SW,225,3.0,8.0,-999,0.00,,,0.00,,2013-04-04 12:33:00,
2013-04-04 07:44:00,34.0,-99.9,-100.00,SW,225,3.0,8.0,-999,0.00,,,0.00,,2013-04-04 12:44:00,
2013-04-04 07:53:00,35.0,-99.9,-100.00,WSW,248,2.0,6.0,-999,0.00,,,0.00,,2013-04-04 12:53:00,
2013-04-04 08:03:00,36.0,-99.9,-100.00,WSW,248,3.0,7.0,-999,0.00,,,0.00,,2013-04-04 13:03:00,
2013-04-04 08:13:00,36.0,-99.9,-100.00,WSW,248,3.0,7.0,-999,0.00,,,0.00,,2013-04-04 13:13:00,
2013-04-04 08:22:00,36.0,-99.9,-100.00,WSW,248,2.0,7.0,-999,0.00,,,0.00,,2013-04-04 13:22:00,
2013-04-04 08:33:00,37.0,-99.9,-100.00,West,270,3.0,9.0,-999,0.00,,,0.00,,2013-04-04 13:33:00,
2013-04-04 08:43:00,37.0,-99.9,-100.00,West,270,3.0,9.0,-999,0.00,,,0.00,,2013-04-04 13:43:00,
2013-04-04 08:53:00,38.0,-99.9,-100.00,WSW,248,3.0,8.0,-999,0.00,,,0.00,,2013-04-04 13:53:00,
2013-04-04 09:04:00,38.0,-99.9,-100.00,WSW,248,2.0,14.0,-999,0.00,,,0.00,,2013-04-04 14:04:00,
2013-04-04 09:13:00,38.0,-99.9,-100.00,WSW,248,2.0,14.0,-999,0.00,,,0.00,,2013-04-04 14:13:00,
2013-04-04 09:22:00,39.0,-99.9,-100.00,NW,315,2.0,12.0,-999,0.00,,,0.00,,2013-04-04 14:22:00,
2013-04-04 09:33:00,39.0,-99.9,-100.00,WNW,293,3.0,10.0,-999,0.00,,,0.00,,2013-04-04 14:33:00,
2013-04-04 09:43:00,39.0,-99.9,-100.00,WNW,293,3.0,10.0,-999,0.00,,,0.00,,2013-04-04 14:43:00,
2013-04-04 09:53:00,40.0,-99.9,-100.00,WNW,293,3.0,12.0,-999,0.00,,,0.00,,2013-04-04 14:53:00,
2013-04-04 10:03:00,40.0,-99.9,-100.00,WSW,248,2.0,10.0,-999,0.00,,,0.00,,2013-04-04 15:03:00,
2013-04-04 10:13:00,40.0,-99.9,-100.00,WSW,248,2.0,10.0,-999,0.00,,,0.00,,2013-04-04 15:13:00,
2013-04-04 10:24:00,41.0,-99.9,-100.00,WNW,293,2.0,12.0,-999,0.00,,,0.00,,2013-04-04 15:24:00,
2013-04-04 10:34:00,42.0,-99.9,-100.00,NNW,338,1.0,9.0,-999,0.00,,,0.00,,2013-04-04 15:34:00,
2013-04-04 10:44:00,42.0,-99.9,-100.00,NNW,338,1.0,9.0,-999,0.00,,,0.00,,2013-04-04 15:44:00,
2013-04-04 10:54:00,42.0,-99.9,-100.00,NW,315,3.0,13.0,-999,0.00,,,0.00,,2013-04-04 15:54:00,
2013-04-04 11:04:00,43.0,-99.9,-100.00,WNW,293,3.0,12.0,-999,0.00,,,0.00,,2013-04-04 16:04:00,
2013-04-04 11:13:00,43.0,-99.9,-100.00,WNW,293,3.0,12.0,-999,0.00,,,0.00,,2013-04-04 16:13:00,
2013-04-04 11:25:00,44.0,-99.9,-100.00,NW,315,6.0,17.0,-999,0.00,,,0.00,,2013-04-04 16:25:00,
2013-04-04 11:33:00,43.0,-99.9,-100.00,NW,315,5.0,10.0,-999,0.00,,,0.00,,2013-04-04 16:33:00,
2013-04-04 11:43:00,43.0,-99.9,-100.00,NW,315,5.0,10.0,-999,0.00,,,0.00,,2013-04-04 16:43:00,
2013-04-04 11:55:00,44.0,-99.9,-100.00,NW,315,5.0,12.0,-999,0.00,,,0.00,,2013-04-04 16:55:00,
2013-04-04 12:03:00,45.0,-99.9,-100.00,NW,315,6.0,12.0,-999,0.00,,,0.00,,2013-04-04 17:03:00,
2013-04-04 12:14:00,45.0,-99.9,-100.00,NW,315,6.0,12.0,-999,0.00,,,0.00,,2013-04-04 17:14:00,
2013-04-04 12:23:00,46.0,-99.9,-100.00,NNW,338,7.0,10.0,-999,0.00,,,0.00,,2013-04-04 17:23:00,
2013-04-04 12:34:00,46.0,-99.9,-100.00,NW,315,8.0,12.0,-999,0.00,,,0.00,,2013-04-04 17:34:00,
2013-04-04 12:43:00,46.0,-99.9,-100.00,NW,315,8.0,12.0,-999,0.00,,,0.00,,2013-04-04 17:43:00,
2013-04-04 12:53:00,47.0,-99.9,-100.00,NNW,338,2.0,9.0,-999,0.00,,,0.00,,2013-04-04 17:53:00,
2013-04-04 13:03:00,47.0,-99.9,-100.00,NW,315,9.0,13.0,-999,0.00,,,0.00,,2013-04-04 18:03:00,
2013-04-04 13:13:00,47.0,-99.9,-100.00,NW,315,9.0,13.0,-999,0.00,,,0.00,,2013-04-04 18:13:00,
2013-04-04 13:23:00,47.0,-99.9,-100.00,NNW,338,3.0,12.0,-999,0.00,,,0.00,,2013-04-04 18:23:00,
2013-04-04 13:33:00,46.0,-99.9,-100.00,NW,315,5.0,12.0,-999,0.00,,,0.00,,2013-04-04 18:33:00,
2013-04-04 13:43:00,46.0,-99.9,-100.00,NW,315,5.0,12.0,-999,0.00,,,0.00,,2013-04-04 18:43:00,
2013-04-04 13:53:00,46.0,-99.9,-100.00,NNW,338,5.0,12.0,-999,0.00,,,0.00,,2013-04-04 18:53:00,
2013-04-04 14:02:00,46.0,-99.9,-100.00,NNW,338,2.0,8.0,-999,0.00,,,0.00,,2013-04-04 19:02:00,
2013-04-04 14:12:00,46.0,-99.9,-100.00,NNW,338,2.0,8.0,-999,0.00,,,0.00,,2013-04-04 19:12:00,
2013-04-04 14:22:00,47.0,-99.9,-100.00,NW,315,7.0,15.0,-999,0.00,,,0.00,,2013-04-04 19:22:00,
2013-04-04 14:33:00,47.0,-99.9,-100.00,NNW,338,2.0,12.0,-999,0.00,,,0.00,,2013-04-04 19:33:00,
2013-04-04 14:43:00,47.0,-99.9,-100.00,NNW,338,2.0,12.0,-999,0.00,,,0.00,,2013-04-04 19:43:00,
2013-04-04 14:53:00,47.0,-99.9,-100.00,NNW,338,5.0,12.0,-999,0.00,,,0.00,,2013-04-04 19:53:00,
2013-04-04 15:04:00,47.0,-99.9,-100.00,NNW,338,3.0,16.0,-999,0.00,,,0.00,,2013-04-04 20:04:00,
2013-04-04 15:13:00,47.0,-99.9,-100.00,NNW,338,3.0,16.0,-999,0.00,,,0.00,,2013-04-04 20:13:00,
2013-04-04 15:23:00,47.0,-99.9,-100.00,NNW,338,5.0,12.0,-999,0.00,,,0.00,,2013-04-04 20:23:00,
2013-04-04 15:33:00,47.0,-99.9,-100.00,NNW,338,3.0,12.0,-999,0.00,,,0.00,,2013-04-04 20:33:00,
2013-04-04 15:42:00,47.0,-99.9,-100.00,NNW,338,3.0,12.0,-999,0.00,,,0.00,,2013-04-04 20:42:00,
2013-04-04 15:53:00,47.0,-99.9,-100.00,North,0,6.0,10.0,-999,0.00,,,0.00,,2013-04-04 20:53:00,
2013-04-04 16:03:00,47.0,-99.9,-100.00,NNW,338,2.0,10.0,-999,0.00,,,0.00,,2013-04-04 21:03:00,
2013-04-04 16:12:00,47.0,-99.9,-100.00,NNW,338,2.0,10.0,-999,0.00,,,0.00,,2013-04-04 21:12:00,
2013-04-04 16:22:00,46.0,-99.9,-100.00,NW,315,6.0,12.0,-999,0.00,,,0.00,,2013-04-04 21:22:00,
2013-04-04 16:33:00,45.0,-99.9,-100.00,NNW,338,3.0,15.0,-999,0.00,,,0.00,,2013-04-04 21:33:00,
2013-04-04 16:43:00,45.0,-99.9,-100.00,NNW,338,3.0,15.0,-999,0.00,,,0.00,,2013-04-04 21:43:00,
2013-04-04 16:53:00,44.0,-99.9,-100.00,NNW,338,3.0,12.0,-999,0.00,,,0.00,,2013-04-04 21:53:00,
2013-04-04 17:04:00,43.0,-99.9,-100.00,NNW,338,3.0,12.0,-999,0.00,,,0.00,,2013-04-04 22:04:00,
2013-04-04 17:13:00,43.0,-99.9,-100.00,NNW,338,3.0,12.0,-999,0.00,,,0.00,,2013-04-04 22:13:00,
2013-04-04 17:23:00,43.0,-99.9,-100.00,North,0,2.0,10.0,-999,0.00,,,0.00,,2013-04-04 22:23:00,
2013-04-04 17:34:00,43.0,-99.9,-100.00,NNW,338,6.0,12.0,-999,0.00,,,0.00,,2013-04-04 22:34:00,
2013-04-04 17:43:00,43.0,-99.9,-100.00,NNW,338,6.0,12.0,-999,0.00,,,0.00,,2013-04-04 22:43:00,
2013-04-04 17:53:00,42.0,-99.9,-100.00,NNW,338,5.0,13.0,-999,0.00,,,0.00,,2013-04-04 22:53:00,
2013-04-04 18:03:00,42.0,-99.9,-100.00,NW,315,2.0,9.0,-999,0.00,,,0.00,,2013-04-04 23:03:00,
2013-04-04 18:13:00,42.0,-99.9,-100.00,NW,315,2.0,9.0,-999,0.00,,,0.00,,2013-04-04 23:13:00,
2013-04-04 18:22:00,41.0,-99.9,-100.00,North,0,3.0,7.0,-999,0.00,,,0.00,,2013-04-04 23:22:00,
2013-04-04 18:32:00,41.0,-99.9,-100.00,NNW,338,3.0,12.0,-999,0.00,,,0.00,,2013-04-04 23:32:00,
2013-04-04 18:43:00,41.0,-99.9,-100.00,NNW,338,3.0,12.0,-999,0.00,,,0.00,,2013-04-04 23:43:00,
2013-04-04 18:53:00,40.0,-99.9,-100.00,North,0,3.0,12.0,-999,0.00,,,0.00,,2013-04-04 23:53:00,
2013-04-04 19:03:00,39.0,-99.9,-100.00,NNW,338,2.0,9.0,-999,0.00,,,0.00,,2013-04-05 00:03:00,
2013-04-04 19:12:00,39.0,-99.9,-100.00,NNW,338,2.0,9.0,-999,0.00,,,0.00,,2013-04-05 00:12:00,
2013-04-04 19:22:00,38.0,-99.9,-100.00,North,0,2.0,5.0,-999,0.00,,,0.00,,2013-04-05 00:22:00,
2013-04-04 19:33:00,37.0,-99.9,-100.00,North,0,1.0,10.0,-999,0.00,,,0.00,,2013-04-05 00:33:00,
2013-04-04 19:43:00,37.0,-99.9,-100.00,North,0,1.0,10.0,-999,0.00,,,0.00,,2013-04-05 00:43:00,
2013-04-04 19:52:00,36.0,-99.9,-100.00,North,0,1.0,6.0,-999,0.00,,,0.00,,2013-04-05 00:52:00,
2013-04-04 20:03:00,35.0,-99.9,-100.00,NNW,338,1.0,3.0,-999,0.00,,,0.00,,2013-04-05 01:03:00,
2013-04-04 20:12:00,35.0,-99.9,-100.00,NNW,338,1.0,3.0,-999,0.00,,,0.00,,2013-04-05 01:12:00,
2013-04-04 20:23:00,34.0,-99.9,-100.00,North,0,2.0,3.0,-999,0.00,,,0.00,,2013-04-05 01:23:00,
2013-04-04 20:33:00,34.0,-99.9,-100.00,North,0,2.0,5.0,-999,0.00,,,0.00,,2013-04-05 01:33:00,
2013-04-04 20:43:00,34.0,-99.9,-100.00,North,0,2.0,5.0,-999,0.00,,,0.00,,2013-04-05 01:43:00,
2013-04-04 20:54:00,34.0,-99.9,-100.00,North,0,1.0,7.0,-999,0.00,,,0.00,,2013-04-05 01:54:00,
2013-04-04 21:03:00,33.0,-99.9,-100.00,NNW,338,1.0,3.0,-999,0.00,,,0.00,,2013-04-05 02:03:00,
2013-04-04 21:12:00,33.0,-99.9,-100.00,NNW,338,1.0,3.0,-999,0.00,,,0.00,,2013-04-05 02:12:00,
2013-04-04 21:22:00,32.0,-99.9,-100.00,North,0,0.0,3.0,-999,0.00,,,0.00,,2013-04-05 02:22:00,
2013-04-04 21:32:00,32.0,-99.9,-100.00,North,0,0.0,3.0,-999,0.00,,,0.00,,2013-04-05 02:32:00,
2013-04-04 21:42:00,32.0,-99.9,-100.00,North,0,0.0,3.0,-999,0.00,,,0.00,,2013-04-05 02:42:00,
2013-04-04 21:52:00,31.0,-99.9,-100.00,North,0,0.0,1.0,-999,0.00,,,0.00,,2013-04-05 02:52:00,
2013-04-04 22:02:00,30.0,-99.9,-100.00,North,0,0.0,2.0,-999,0.00,,,0.00,,2013-04-05 03:02:00,
2013-04-04 22:12:00,30.0,-99.9,-100.00,North,0,0.0,2.0,-999,0.00,,,0.00,,2013-04-05 03:12:00,
2013-04-04 22:22:00,30.0,-99.9,-100.00,North,0,0.0,1.0,-999,0.00,,,0.00,,2013-04-05 03:22:00,
2013-04-04 22:33:00,28.0,-99.9,-100.00,North,0,0.0,1.0,-999,0.00,,,0.00,,2013-04-05 03:33:00,
2013-04-04 22:43:00,28.0,-99.9,-100.00,North,0,0.0,1.0,-999,0.00,,,0.00,,2013-04-05 03:43:00,
2013-04-04 22:55:00,27.0,-99.9,-100.00,North,0,0.0,0.0,-999,0.00,,,0.00,,2013-04-05 03:55:00,
2013-04-04 23:03:00,26.0,-99.9,-100.00,North,0,0.0,0.0,-999,0.00,,,0.00,,2013-04-05 04:03:00,
2013-04-04 23:13:00,26.0,-99.9,-100.00,North,0,0.0,0.0,-999,0.00,,,0.00,,2013-04-05 04:13:00,
2013-04-04 23:23:00,26.0,-99.9,-100.00,North,0,0.0,0.0,-999,0.00,,,0.00,,2013-04-05 04:23:00,
2013-04-04 23:33:00,25.0,-99.9,-100.00,North,0,0.0,0.0,-999,0.00,,,0.00,,2013-04-05 04:33:00,
2013-04-04 23:43:00,25.0,-99.9,-100.00,North,0,0.0,0.0,-999,0.00,,,0.00,,2013-04-05 04:43:00,
2013-04-04 23:53:00,25.0,-99.9,-100.00,North,0,0.0,1.0,-999,0.00,,,0.00,,2013-04-05 04:53:00,